This is the latest recevied weather packets stored in our database for station/object WD0REW. If no packets are shown the sender has not sent any weather packets the latest 10 day(s).
| Time | Temp. | Humidity | Pressure | Rain* | Wind** | Luminosity | Snow |
|---|---|---|---|---|---|---|---|
| 1777583588 | 19.44° C | 38% | 1016.8 hPa | 0 mm | - | 210 W/m² | - |
| 1777583287 | 19.44° C | 36% | 1017 hPa | 0 mm | - | 240 W/m² | - |
| 1777582982 | 19.44° C | 36% | 1017.1 hPa | 0 mm | - | 240 W/m² | - |
| 1777582680 | 19.44° C | 38% | 1017.1 hPa | 0 mm | - | 245 W/m² | - |
| 1777582380 | 19.44° C | 39% | 1017.4 hPa | 0 mm | - | 224 W/m² | - |
| 1777582078 | 19.44° C | 37% | 1017.2 hPa | 0 mm | - | 262 W/m² | - |
| 1777581773 | 19.44° C | 38% | 1017.4 hPa | 0 mm | - | 274 W/m² | - |
| 1777581472 | 19.44° C | 39% | 1017.6 hPa | 0 mm | - | 266 W/m² | - |
| 1777581167 | 19.44° C | 39% | 1017.7 hPa | 0 mm | - | 345 W/m² | - |
| 1777580862 | 18.89° C | 41% | 1017.7 hPa | 0 mm | - | 282 W/m² | - |
| 1777580557 | 18.89° C | 40% | 1018 hPa | 0 mm | - | 297 W/m² | - |
| 1777580253 | 19.44° C | 38% | 1017.6 hPa | 0 mm | - | 294 W/m² | - |
| 1777579950 | 20° C | 35% | 1017.9 hPa | 0 mm | - | 360 W/m² | - |
| 1777579645 | 19.44° C | 38% | 1017.8 hPa | 0 mm | - | 510 W/m² | - |
| 1777579344 | 18.89° C | 35% | 1017.8 hPa | 0 mm | - | 449 W/m² | - |
| 1777579040 | 18.33° C | 35% | 1018 hPa | 0 mm | - | 393 W/m² | - |
| 1777578735 | 18.89° C | 34% | 1017.8 hPa | 0 mm | - | 404 W/m² | - |
| 1777578435 | 18.89° C | 42% | 1017.8 hPa | 0 mm | - | 324 W/m² | - |
| 1777578131 | 18.89° C | 34% | 1017.9 hPa | 0 mm | - | 389 W/m² | - |
| 1777577827 | 18.89° C | 36% | 1017.9 hPa | 0 mm | - | 375 W/m² | - |
| 1777577522 | 18.89° C | 40% | 1018.1 hPa | 0 mm | - | 340 W/m² | - |
| 1777577219 | 18.33° C | 37% | 1017.9 hPa | 0 mm | - | 365 W/m² | - |
| 1777576915 | 18.89° C | 37% | 1018.1 hPa | 0 mm | - | 308 W/m² | - |
| 1777576610 | 18.89° C | 39% | 1017.9 hPa | 0 mm | - | 403 W/m² | - |
| 1777576306 | 18.89° C | 35% | 1017.9 hPa | 0 mm | - | 562 W/m² | - |
* Rain latest hour (hover to see other rain measurements)
** Current wind speed in m/s (hover to see current wind gust speed)